Terminal Aerodrome Forecast
Issued by NWS Wilmington, OH

Current Version | Previous Version | Graphics & Text | Print | Product List | Glossary On
Versions: 1 2 3 4 5 6 7 8 9 10 11 12 13 14 15 16 17 18 19 20 21 22 23 24 25 26 27 28 29 30 31 32 33
924
FTUS41 KILN 172155 AAC
TAFCVG
TAF AMD
KCVG 172155Z 1722/1824 27012G17KT P6SM BKN025
     FM180000 26012G17KT P6SM VCSH OVC015
     FM181200 25008KT P6SM OVC012=

USA.gov is the U.S. government's official web portal to all federal, state and local government web resources and services.